Flight Track Log - Related Links

Times and Time Zones

All times are in EDT time to prevent confusion due to time zone crossing. See the CTL22 flight status page for this flight to view local times or setup timezone preferences in your user account.

Time Position Orientation Groundspeed Altitude Reporting Facility
EDT Latitude Longitude Course Direction KTS MPH feet Rate Location/Type
Fri 09:56:14 PM 41.5519 -81.7181 339° North 151 174 1,800  Level Cleveland Center
Fri 09:57:15 PM 41.5789 -81.7461 322° Northwest 117 135 2,900 1,041 Climbing Cleveland Center
Fri 09:58:15 PM 41.5972 -81.7881 300° West 126 145 3,900 496 Climbing Cleveland Center
Fri 09:59:16 PM 41.6156 -81.8275 302° West 130 150 3,900  Level Cleveland Center
Fri 10:00:23 PM 41.6378 -81.8750 302° West 132 152 3,900 59 Level Cleveland Center
Fri 10:00:57 PM 41.6481 -81.9003 299° West 132 152 4,000 100 Climbing Cleveland Center
Fri 10:01:23 PM 41.6583 -81.9200 305° West 132 152 4,000  Level Cleveland Center
Fri 10:02:24 PM 41.6744 -81.9647 296° West 133 153 4,000  Level Cleveland Center
Fri 10:03:24 PM 41.6928 -82.0042 302° West 135 155 4,000  Level Cleveland Center
Fri 10:04:25 PM 41.7131 -82.0464 303° West 132 152 4,000  Level Cleveland Center
Fri 10:05:32 PM 41.7353 -82.0969 301° West 134 154 4,000 47 Level Cleveland Center
Fri 10:06:32 PM 41.7492 -82.1417 293° West 128 147 4,100  Climbing Cleveland Center
Fri 10:07:27 PM 41.7675 -82.1783 304° West 132 152 4,000 -52 Descending Cleveland Center
Fri 10:08:27 PM 41.7856 -82.2206 300° West 134 154 4,000  Level Cleveland Center
Fri 10:09:22 PM 41.8039 -82.2600 302° West 129 148 4,000 -69 Level Cleveland Center
Fri 10:09:54 PM 41.8119 -82.2742 307° West 128 147 3,900 -61 Descending Cleveland Center
Fri 10:11:01 PM 41.8364 -82.3222 304° West 132 152 3,900 -47 Level Cleveland Center
Fri 10:12:01 PM 41.8544 -82.3644 300° West 129 148 3,800 52 Descending Cleveland Center
Fri 10:12:56 PM 41.8664 -82.3983 295° West 123 142 4,000 103 Climbing Cleveland Center
Fri 10:13:57 PM 41.8867 -82.4408 303° West 124 143 4,000  Level Cleveland Center
Fri 10:15:03 PM 41.9044 -82.4858 298° West 127 146 4,000  Level Cleveland Center
Fri 10:15:52 PM 41.9186 -82.5197 299° West 125 144 4,000  Level Cleveland Center
Fri 10:16:59 PM 41.9386 -82.5678 299° West 131 151 4,000 -45 Level Cleveland Center
Fri 10:18:05 PM 41.9608 -82.6133 303° West 131 151 3,900  Descending Cleveland Center
Fri 10:19:00 PM 41.9747 -82.6528 295° West 133 153 4,000  Climbing Cleveland Center
Fri 10:20:01 PM 41.9906 -82.6981 295° West 130 150 3,900  Descending Cleveland Center
Fri 10:21:07 PM 42.0083 -82.7461 296° West 127 146 4,000 47 Climbing Cleveland Center
Fri 10:22:08 PM 42.0264 -82.7886 300° West 127 146 4,000  Level Cleveland Center
Fri 10:23:15 PM 42.0442 -82.8339 298° West 133 153 4,000  Level Cleveland Center
Fri 10:24:15 PM 42.0642 -82.8794 301° West 137 158 4,000 -55 Level Cleveland Center
Fri 10:25:04 PM 42.0781 -82.9164 297° West 135 155 3,900 -52 Descending Cleveland Center
Fri 10:26:11 PM 42.0958 -82.9644 297° West 128 147 3,900 45 Level Cleveland Center
Fri 10:27:17 PM 42.1136 -83.0100 298° West 129 148 4,000 45 Climbing Cleveland Center
Fri 10:28:24 PM 42.1333 -83.0611 298° West 133 153 4,000  Level Cleveland Center
Fri 10:29:13 PM 42.1472 -83.0981 297° West 134 154 4,000 -52 Level Cleveland Center
Fri 10:30:19 PM 42.1669 -83.1464 299° West 134 154 3,900  Descending Cleveland Center
Fri 10:31:14 PM 42.1828 -83.1836 300° West 132 152 4,000  Climbing Cleveland Center
Fri 10:32:15 PM 42.1964 -83.2289 292° West 130 150 3,900  Descending Cleveland Center
Fri 10:33:15 PM 42.2056 -83.2769 284° West 129 148 4,000 50 Climbing Cleveland Center
Fri 10:34:16 PM 42.2211 -83.3225 295° West 131 151 4,000 52 Level Cleveland Center
Fri 10:35:10 PM 42.2306 -83.3622 288° West 131 151 4,100  Climbing Cleveland Center
Fri 10:36:11 PM 42.2419 -83.4106 288° West 135 155 4,000  Descending Cleveland Center
Fri 10:37:12 PM 42.2556 -83.4558 292° West 130 150 4,100  Climbing Cleveland Center
Fri 10:38:12 PM 42.2689 -83.5014 292° West 129 148 4,000 -50 Descending Cleveland Center
Fri 10:39:13 PM 42.2781 -83.5497 284° West 129 148 4,000 52 Level Cleveland Center
Fri 10:40:07 PM 42.2917 -83.5894 295° West 129 148 4,100 52 Climbing Cleveland Center
Fri 10:41:08 PM 42.3069 -83.6381 293° West 130 150 4,100 -49 Level Cleveland Center
Fri 10:42:09 PM 42.3203 -83.6836 292° West 131 151 4,000 -99 Descending Cleveland Center
Fri 10:43:09 PM 42.3317 -83.7292 289° West 130 150 3,900  Descending Cleveland Center
Fri 10:44:10 PM 42.3431 -83.7747 289° West 129 148 4,000 -42 Climbing Cleveland Center
Fri 10:46:00 PM 42.3701 -83.8563 294° West  Level FlightAware Approximate
Fri 10:53:00 PM 42.4724 -84.1686 293° West  Level FlightAware Approximate
Fri 10:54:00 PM 42.4862 -84.2137 293° West  Level FlightAware Approximate
Fri 10:55:00 PM 42.5000 -84.2589 293° West  Level FlightAware Approximate
Fri 10:56:00 PM 42.5138 -84.3040 293° West  Level FlightAware Approximate
Fri 10:57:00 PM 42.5276 -84.3492 292° West  Level FlightAware Approximate
Fri 10:58:00 PM 42.5414 -84.3944 292° West  Level FlightAware Approximate
Fri 10:59:00 PM 42.5551 -84.4396 292° West  Level FlightAware Approximate
Fri 11:00:00 PM 42.5688 -84.4848 292° West  Level FlightAware Approximate
Fri 11:01:00 PM 42.5826 -84.5304 292° West  Level FlightAware Approximate
Fri 11:02:00 PM 42.5964 -84.5759 292° West  Level FlightAware Approximate
Fri 11:03:00 PM 42.6101 -84.6214 292° West  Level FlightAware Approximate
Fri 11:04:00 PM 42.6238 -84.6670 292° West  Level FlightAware Approximate
Fri 11:04:29 PM 42.6219 -84.7133 292° West 149 171 3,000  Level Chicago Center
Fri 11:05:00 PM 42.6376 -84.7126 292° West  Level FlightAware Approximate
Fri 11:05:30 PM 42.6331 -84.7583 289° West 128 147 3,000  Level Chicago Center
Fri 11:06:00 PM 42.6512 -84.7582 292° West  Level FlightAware Approximate
Fri 11:06:31 PM 42.6450 -84.8039 290° West 129 148 3,000  Level Chicago Center
Fri 11:07:00 PM 42.6649 -84.8038 292° West  Level FlightAware Approximate
Fri 11:07:33 PM 42.6581 -84.8472 292° West 127 146 2,900  Level Chicago Center
Fri 11:08:00 PM 42.6786 -84.8495 292° West  Level FlightAware Approximate
Fri 11:08:34 PM 42.6694 -84.8931 289° West 128 147 3,000  Level Chicago Center
Fri 11:09:00 PM 42.6922 -84.8952 292° West  Level FlightAware Approximate
Fri 11:09:35 PM 42.6836 -84.9372 294° West 128 147 3,000  Level Chicago Center
Fri 11:10:36 PM 42.6986 -84.9897 291° West 125 144 3,000 -49 Level Chicago Center
Fri 11:11:37 PM 42.7119 -85.0328 293° West 124 143 2,900  Descending Chicago Center
Fri 11:12:38 PM 42.7258 -85.0775 293° West 127 146 3,000  Climbing Chicago Center
Fri 11:13:39 PM 42.7394 -85.1228 292° West 130 150 2,900 -49 Descending Chicago Center
Fri 11:14:40 PM 42.7539 -85.1669 294° West 129 148 2,900 49 Level Chicago Center
Fri 11:15:41 PM 42.7669 -85.2119 292° West 128 147 3,000 -49 Climbing Chicago Center
Fri 11:16:42 PM 42.7817 -85.2600 293° West 132 152 2,800 -197 Descending Chicago Center
Fri 11:17:43 PM 42.7972 -85.3081 294° West 136 157 2,600 -148 Descending Chicago Center
Fri 11:18:44 PM 42.8150 -85.3531 298° West 137 158 2,500 -246 Descending Chicago Center
Fri 11:19:45 PM 42.8356 -85.3983 302° West 138 159 2,100 -295 Descending Chicago Center
Fri 11:20:46 PM 42.8592 -85.4450 305° West 143 165 1,900 -492 Descending Chicago Center
Fri 11:21:47 PM 42.8764 -85.4897 298° West 141 162 1,100 -344 Descending Chicago Center
Fri 11:22:48 PM 42.8886 -85.5289 293° West 129 148 1,200 98 Climbing Chicago Center
Fri 11:24:00 PM 42.8808 -85.5228 270° West  Level Estimated

Login

Don't have an account? Register now (free) for customized features, flight alerts, and more!